If you wish to contribute or participate in the discussions about articles you are invited to join SKYbrary as a registered user

 Actions

Rundu Airport

From SKYbrary Wiki

FYRU
Airport
ICAO: FYRU – IATA: NDU
Summary
Name Rundu Airport
Region Africa
Territory Namibia NA.gif
Location Rundu, Kavango Region
Serving Rundu
Elevation 1,105.51 m
3,627 ft
3,627 ft1,105.51 m
Coordinates 17° 57' 35.70" S, 19° 43' 13.71" E
Runways
Designator Length Width Surface ROPS
8/26 3354 m11,003.937 ft
30 m98.425 ft
ASP /
18/36 1465 m4,806.43 ft
30 m98.425 ft
GVL /


METAR
Observation FYRU 190500Z AUTO 31003KT //// // ////// 23/15 Q1015
Station Rundu
Date/Time 19 January 2020 05:00:00
Wind direction 310°
Wind speed 03 kts
Lowest cloud amount n/a
Temperature 23°C
Dew point 15°C
Humidity 60%
QNH 1015 hPa
Weather condition n/a